This is the latest recevied weather packets stored in our database for station/object IZ1MEU-13. If no packets are shown the sender has not sent any weather packets the latest 1 day(s).
| Time | Temp. | Humidity | Pressure | Rain* | Wind** | Luminosity | Snow |
|---|---|---|---|---|---|---|---|
| 1777788273 | 14.44° C | 43% | 1021.9 hPa | - | - | - | - |
| 1777787070 | 14.44° C | 44% | 1021.8 hPa | - | - | - | - |
| 1777785866 | 13.89° C | 44% | 1021.8 hPa | - | - | - | - |
| 1777784662 | 13.33° C | 45% | 1021.6 hPa | - | - | - | - |
| 1777783458 | 12.78° C | 45% | 1021.5 hPa | - | - | - | - |
| 1777782254 | 12.78° C | 45% | 1021.7 hPa | - | - | - | - |
| 1777781051 | 12.78° C | 45% | 1021.7 hPa | - | - | - | - |
| 1777779847 | 12.78° C | 45% | 1021.7 hPa | - | - | - | - |
| 1777778643 | 12.78° C | 45% | 1021.7 hPa | - | - | - | - |
| 1777777439 | 12.78° C | 45% | 1021.8 hPa | - | - | - | - |
| 1777776236 | 12.78° C | 46% | 1021.9 hPa | - | - | - | - |
| 1777775032 | 12.78° C | 45% | 1022 hPa | - | - | - | - |
| 1777773828 | 12.78° C | 45% | 1022 hPa | - | - | - | - |
| 1777772624 | 13.33° C | 45% | 1022 hPa | - | - | - | - |
| 1777771420 | 13.33° C | 45% | 1022 hPa | - | - | - | - |
| 1777770217 | 12.78° C | 45% | 1022.2 hPa | - | - | - | - |
| 1777769013 | 13.33° C | 44% | 1022.4 hPa | - | - | - | - |
| 1777767809 | 13.33° C | 45% | 1022.6 hPa | - | - | - | - |
| 1777766605 | 13.33° C | 44% | 1022.7 hPa | - | - | - | - |
| 1777765402 | 13.33° C | 43% | 1022.9 hPa | - | - | - | - |
| 1777764198 | 13.33° C | 43% | 1023 hPa | - | - | - | - |
| 1777762994 | 13.89° C | 43% | 1023.1 hPa | - | - | - | - |
| 1777761789 | 13.89° C | 41% | 1023.1 hPa | - | - | - | - |
| 1777760585 | 13.89° C | 40% | 1023.2 hPa | - | - | - | - |
| 1777759381 | 13.89° C | 38% | 1023.2 hPa | - | - | - | - |
* Rain since midnight (hover to see other rain measurements)
** Current wind speed in m/s (hover to see current wind gust speed)